Year,Month,Day,Hour,Minute,Value (Times are PST for temperature in C)
2020,12,07,00,00,6.70
2020,12,07,00,01,6.70
2020,12,07,00,02,6.70
2020,12,07,00,03,6.70
2020,12,07,00,04,6.70
2020,12,07,00,05,6.70
2020,12,07,00,06,6.70
2020,12,07,00,07,6.70
2020,12,07,00,08,6.70
2020,12,07,00,09,6.70
2020,12,07,00,10,6.70
2020,12,07,00,11,6.70
2020,12,07,00,12,6.70
2020,12,07,00,13,6.70
2020,12,07,00,14,6.60
2020,12,07,00,15,6.70
2020,12,07,00,16,6.60
2020,12,07,00,17,6.70
2020,12,07,00,18,6.70
2020,12,07,00,19,6.70
2020,12,07,00,20,6.70
2020,12,07,00,21,6.70
2020,12,07,00,22,6.70
2020,12,07,00,23,6.70
2020,12,07,00,24,6.70
2020,12,07,00,25,6.70
2020,12,07,00,26,6.70
2020,12,07,00,27,6.70
2020,12,07,00,28,6.70
2020,12,07,00,29,6.70
2020,12,07,00,30,6.70
2020,12,07,00,31,6.70
2020,12,07,00,32,6.60
2020,12,07,00,33,6.60
2020,12,07,00,34,6.60
2020,12,07,00,35,6.60
2020,12,07,00,36,6.60
2020,12,07,00,37,6.60
2020,12,07,00,38,6.60
2020,12,07,00,39,6.60
2020,12,07,00,40,6.60
2020,12,07,00,41,6.60
2020,12,07,00,42,6.60
2020,12,07,00,43,6.60
2020,12,07,00,44,6.60
2020,12,07,00,45,6.60
2020,12,07,00,46,6.60
2020,12,07,00,47,6.60
2020,12,07,00,48,6.60
2020,12,07,00,49,6.60
2020,12,07,00,50,6.60
2020,12,07,00,51,6.60
2020,12,07,00,52,6.60
2020,12,07,00,53,6.70
2020,12,07,00,54,6.70
2020,12,07,00,55,6.70
2020,12,07,00,56,6.70
2020,12,07,00,57,6.70
2020,12,07,00,58,6.70
2020,12,07,00,59,6.70
2020,12,07,01,00,6.70
2020,12,07,01,01,6.70
2020,12,07,01,02,6.80
2020,12,07,01,03,6.80
2020,12,07,01,04,6.80
2020,12,07,01,05,6.80
2020,12,07,01,06,6.70
2020,12,07,01,07,6.70
2020,12,07,01,08,6.70
2020,12,07,01,09,6.70
2020,12,07,01,10,6.80
2020,12,07,01,11,6.70
2020,12,07,01,12,6.70
2020,12,07,01,13,6.70
2020,12,07,01,14,6.70
2020,12,07,01,15,6.70
2020,12,07,01,16,6.70
2020,12,07,01,17,6.70
2020,12,07,01,18,6.80
2020,12,07,01,19,6.80
2020,12,07,01,20,6.80
2020,12,07,01,21,6.80
2020,12,07,01,22,6.80
2020,12,07,01,23,6.80
2020,12,07,01,24,6.80
2020,12,07,01,25,6.70
2020,12,07,01,26,6.70
2020,12,07,01,27,6.70
2020,12,07,01,28,6.70
2020,12,07,01,29,6.80
2020,12,07,01,30,6.70
2020,12,07,01,31,6.70
2020,12,07,01,32,6.70
2020,12,07,01,33,6.80
2020,12,07,01,34,6.80
2020,12,07,01,35,6.80
2020,12,07,01,36,6.80
2020,12,07,01,37,6.80
2020,12,07,01,38,6.80
2020,12,07,01,39,6.80
2020,12,07,01,40,6.80
2020,12,07,01,41,6.80
2020,12,07,01,42,6.80
2020,12,07,01,43,6.90
2020,12,07,01,44,6.90
2020,12,07,01,45,6.90
2020,12,07,01,46,6.90
2020,12,07,01,47,7.00
2020,12,07,01,48,7.00
2020,12,07,01,49,7.00
2020,12,07,01,50,7.10
2020,12,07,01,51,7.10
2020,12,07,01,52,7.10
2020,12,07,01,53,7.00
2020,12,07,01,54,7.00
2020,12,07,01,55,7.10
2020,12,07,01,56,7.10
2020,12,07,01,57,7.10
2020,12,07,01,58,7.20
2020,12,07,01,59,7.20
2020,12,07,02,00,7.20
2020,12,07,02,01,7.20
2020,12,07,02,02,7.20
2020,12,07,02,03,7.20
2020,12,07,02,04,7.20
2020,12,07,02,05,7.20
2020,12,07,02,06,7.10
2020,12,07,02,07,7.10
2020,12,07,02,08,7.10
2020,12,07,02,09,7.10
2020,12,07,02,10,7.10
2020,12,07,02,11,7.10
2020,12,07,02,12,7.10
2020,12,07,02,13,7.10
2020,12,07,02,14,7.10
2020,12,07,02,15,7.10
2020,12,07,02,16,7.10
2020,12,07,02,17,7.10
2020,12,07,02,18,7.10
2020,12,07,02,19,7.10
2020,12,07,02,20,7.10
2020,12,07,02,21,7.10
2020,12,07,02,22,7.10
2020,12,07,02,23,7.10
2020,12,07,02,24,7.10
2020,12,07,02,25,7.10
2020,12,07,02,26,7.10
2020,12,07,02,27,7.10
2020,12,07,02,28,7.10
2020,12,07,02,29,7.10
2020,12,07,02,30,7.10
2020,12,07,02,31,7.10
2020,12,07,02,32,7.10
2020,12,07,02,33,7.10
2020,12,07,02,34,7.10
2020,12,07,02,35,7.10
2020,12,07,02,36,7.10
2020,12,07,02,37,7.10
2020,12,07,02,38,7.10
2020,12,07,02,39,7.10
2020,12,07,02,40,7.10
2020,12,07,02,41,7.10
2020,12,07,02,42,7.10
2020,12,07,02,43,7.10
2020,12,07,02,44,7.10
2020,12,07,02,45,7.10
2020,12,07,02,46,7.10
2020,12,07,02,47,7.10
2020,12,07,02,48,7.10
2020,12,07,02,49,7.10
2020,12,07,02,50,7.00
2020,12,07,02,51,7.00
2020,12,07,02,52,7.00
2020,12,07,02,53,7.00
2020,12,07,02,54,7.00
2020,12,07,02,55,7.00
2020,12,07,02,56,7.00
2020,12,07,02,57,7.00
2020,12,07,02,58,7.00
2020,12,07,02,59,7.00
2020,12,07,03,00,7.00
2020,12,07,03,01,7.00
2020,12,07,03,02,7.00
2020,12,07,03,03,7.00
2020,12,07,03,04,7.00
2020,12,07,03,05,7.00
2020,12,07,03,06,7.00
2020,12,07,03,07,7.00
2020,12,07,03,08,7.00
2020,12,07,03,09,7.00
2020,12,07,03,10,7.00
2020,12,07,03,11,7.00
2020,12,07,03,12,7.00
2020,12,07,03,13,7.00
2020,12,07,03,14,7.00
2020,12,07,03,15,7.00
2020,12,07,03,16,7.00
2020,12,07,03,17,7.00
2020,12,07,03,18,7.00
2020,12,07,03,19,7.00
2020,12,07,03,20,7.00
2020,12,07,03,21,7.00
2020,12,07,03,22,7.00
2020,12,07,03,23,7.00
2020,12,07,03,24,7.00
2020,12,07,03,25,7.00
2020,12,07,03,26,7.00
2020,12,07,03,27,7.00
2020,12,07,03,28,7.00
2020,12,07,03,29,7.00
2020,12,07,03,30,7.00
2020,12,07,03,31,7.00
2020,12,07,03,32,7.00
2020,12,07,03,33,7.10
2020,12,07,03,34,7.10
2020,12,07,03,35,7.10
2020,12,07,03,36,7.10
2020,12,07,03,37,7.10
2020,12,07,03,38,7.10
2020,12,07,03,39,7.10
2020,12,07,03,40,7.10
2020,12,07,03,41,7.10
2020,12,07,03,42,7.10
2020,12,07,03,43,7.10
2020,12,07,03,44,7.10
2020,12,07,03,45,7.10
2020,12,07,03,46,7.10
2020,12,07,03,47,7.10
2020,12,07,03,48,7.10
2020,12,07,03,49,7.10
2020,12,07,03,50,7.10
2020,12,07,03,51,7.10
2020,12,07,03,52,7.10
2020,12,07,03,53,7.10
2020,12,07,03,54,7.10
2020,12,07,03,55,7.10
2020,12,07,03,56,7.10
2020,12,07,03,57,7.10
2020,12,07,03,58,7.10
2020,12,07,03,59,7.10
2020,12,07,04,00,7.10
2020,12,07,04,01,7.10
2020,12,07,04,02,7.10
2020,12,07,04,03,7.10
2020,12,07,04,04,7.10
2020,12,07,04,05,7.10
2020,12,07,04,06,7.10
2020,12,07,04,07,7.10
2020,12,07,04,08,7.10
2020,12,07,04,09,7.10
2020,12,07,04,10,7.10
2020,12,07,04,11,7.10
2020,12,07,04,12,7.10
2020,12,07,04,13,7.10
2020,12,07,04,14,7.10
2020,12,07,04,15,7.10
2020,12,07,04,16,7.10
2020,12,07,04,17,7.10
2020,12,07,04,18,7.10
2020,12,07,09,40,7.20
2020,12,07,09,41,7.20
2020,12,07,09,42,7.20
2020,12,07,09,43,7.20
2020,12,07,09,44,7.20
2020,12,07,09,45,7.20
2020,12,07,09,46,7.30
2020,12,07,09,47,7.30
2020,12,07,09,48,7.30
2020,12,07,09,49,7.30
2020,12,07,09,50,7.30
2020,12,07,09,51,7.30
2020,12,07,09,52,7.30
2020,12,07,09,53,7.30
2020,12,07,09,54,7.30
2020,12,07,09,55,7.30
2020,12,07,09,56,7.30
2020,12,07,09,57,7.30
2020,12,07,09,58,7.30
2020,12,07,09,59,7.30
2020,12,07,10,00,7.30
2020,12,07,10,01,7.20
2020,12,07,10,02,7.30
2020,12,07,10,03,7.20
2020,12,07,10,04,7.30
2020,12,07,10,05,7.30
2020,12,07,10,06,7.30
2020,12,07,10,07,7.30
2020,12,07,10,08,7.30
2020,12,07,10,09,7.30
2020,12,07,10,10,7.30
2020,12,07,10,11,7.30
2020,12,07,10,12,7.30
2020,12,07,10,13,7.30
2020,12,07,10,14,7.40
2020,12,07,10,15,7.40
2020,12,07,10,16,7.40
2020,12,07,10,17,7.40
2020,12,07,10,18,7.40
2020,12,07,10,19,7.40
2020,12,07,10,20,7.40
2020,12,07,10,21,7.40
2020,12,07,10,22,7.40
2020,12,07,10,23,7.40
2020,12,07,10,24,7.40
2020,12,07,10,25,7.50
2020,12,07,10,26,7.50
2020,12,07,10,27,7.50
2020,12,07,10,28,7.50
2020,12,07,10,29,7.50
2020,12,07,10,30,7.50
2020,12,07,10,31,7.50
2020,12,07,10,32,7.50
2020,12,07,10,33,7.40
2020,12,07,10,34,7.40
2020,12,07,10,35,7.40
2020,12,07,10,36,7.40
2020,12,07,10,37,7.40
2020,12,07,10,38,7.40
2020,12,07,10,39,7.40
2020,12,07,10,40,7.40
2020,12,07,10,41,7.40
2020,12,07,10,42,7.40
2020,12,07,10,43,7.40
2020,12,07,10,44,7.40
2020,12,07,10,45,7.40
2020,12,07,10,46,7.40
2020,12,07,10,47,7.40
2020,12,07,10,48,7.40
2020,12,07,10,49,7.40
2020,12,07,10,50,7.40
2020,12,07,10,51,7.40
2020,12,07,10,52,7.40
2020,12,07,10,53,7.40
2020,12,07,10,54,7.40
2020,12,07,10,55,7.40
2020,12,07,10,56,7.40
2020,12,07,10,57,7.40
2020,12,07,10,58,7.40
2020,12,07,10,59,7.40
2020,12,07,11,00,7.40
2020,12,07,11,01,7.40
2020,12,07,11,02,7.40
2020,12,07,11,03,7.40
2020,12,07,11,04,7.40
2020,12,07,11,05,7.30
2020,12,07,11,06,7.30
2020,12,07,11,07,7.30
2020,12,07,11,08,7.30
2020,12,07,11,09,7.40
2020,12,07,11,10,7.40
2020,12,07,11,11,7.40
2020,12,07,11,12,7.40
2020,12,07,11,13,7.40
2020,12,07,11,14,7.40
2020,12,07,11,15,7.40
2020,12,07,11,16,7.40
2020,12,07,11,17,7.40
2020,12,07,11,18,7.40
2020,12,07,11,19,7.40
2020,12,07,11,20,7.30
2020,12,07,11,21,7.30
2020,12,07,11,22,7.30
2020,12,07,11,23,7.30
2020,12,07,11,24,7.30
2020,12,07,11,25,7.30
2020,12,07,11,26,7.30
2020,12,07,11,27,7.30
2020,12,07,11,28,7.30
2020,12,07,11,29,7.30
2020,12,07,11,30,7.30
2020,12,07,11,31,7.30
2020,12,07,11,32,7.30
2020,12,07,11,33,7.30
2020,12,07,11,34,7.30
2020,12,07,11,35,7.30
2020,12,07,11,36,7.30
2020,12,07,11,37,7.30
2020,12,07,11,38,7.30
2020,12,07,11,39,7.30
2020,12,07,11,40,7.30
2020,12,07,11,41,7.30
2020,12,07,11,42,7.30
2020,12,07,11,43,7.30
2020,12,07,11,44,7.30
2020,12,07,11,45,7.30
2020,12,07,11,46,7.30
2020,12,07,11,47,7.30
2020,12,07,11,48,7.30
2020,12,07,11,49,7.30
2020,12,07,11,50,7.30
2020,12,07,11,51,7.30
2020,12,07,11,52,7.30
2020,12,07,11,53,7.30
2020,12,07,11,54,7.30
2020,12,07,11,55,7.30
2020,12,07,11,56,7.30
2020,12,07,11,57,7.30
2020,12,07,11,58,7.30
2020,12,07,11,59,7.30
2020,12,07,12,00,7.30
2020,12,07,12,01,7.30
2020,12,07,12,02,7.30
2020,12,07,12,03,7.30
2020,12,07,12,04,7.30
2020,12,07,12,05,7.30
2020,12,07,12,06,7.30
2020,12,07,12,07,7.30
2020,12,07,12,08,7.30
2020,12,07,12,09,7.30
2020,12,07,12,10,7.30
2020,12,07,12,11,7.30
2020,12,07,12,12,7.30
2020,12,07,12,13,7.30
2020,12,07,12,14,7.30
2020,12,07,12,15,7.30
2020,12,07,12,16,7.30
2020,12,07,12,17,7.30
2020,12,07,12,18,7.30
2020,12,07,12,19,7.30
2020,12,07,12,20,7.30
2020,12,07,12,21,7.30
2020,12,07,12,22,7.30
2020,12,07,12,23,7.30
2020,12,07,12,24,7.20
2020,12,07,12,25,7.20
2020,12,07,12,26,7.20
2020,12,07,12,27,7.20
2020,12,07,12,28,7.20
2020,12,07,12,29,7.20
2020,12,07,12,30,7.20
2020,12,07,12,31,7.20
2020,12,07,12,32,7.20
2020,12,07,12,33,7.20
2020,12,07,12,34,7.20
2020,12,07,12,35,7.20
2020,12,07,12,36,7.20
2020,12,07,12,37,7.20
2020,12,07,12,38,7.20
2020,12,07,12,39,7.20
2020,12,07,12,40,7.20
2020,12,07,12,41,7.20
2020,12,07,12,42,7.20
2020,12,07,12,43,7.20
2020,12,07,12,44,7.20
2020,12,07,12,45,7.20
2020,12,07,12,46,7.20
2020,12,07,12,47,7.20
2020,12,07,12,48,7.20
2020,12,07,12,49,7.20
2020,12,07,12,50,7.20
2020,12,07,12,51,7.20
2020,12,07,12,52,7.20
2020,12,07,12,53,7.20
2020,12,07,12,54,7.20
2020,12,07,12,55,7.20
2020,12,07,12,56,7.20
2020,12,07,12,57,7.20
2020,12,07,12,58,7.20
2020,12,07,12,59,7.20
2020,12,07,13,00,7.20
2020,12,07,13,01,7.20
2020,12,07,13,02,7.10
2020,12,07,13,03,7.10
2020,12,07,13,04,7.10
2020,12,07,13,05,7.10
2020,12,07,13,06,7.10
2020,12,07,13,07,7.10
2020,12,07,13,08,7.10
2020,12,07,13,09,7.10
2020,12,07,13,10,7.10
2020,12,07,13,11,7.10
2020,12,07,13,12,7.10
2020,12,07,13,13,7.10
2020,12,07,13,14,7.10
2020,12,07,13,15,7.10
2020,12,07,13,16,7.10
2020,12,07,13,17,7.00
2020,12,07,13,18,7.00
2020,12,07,13,19,7.00
2020,12,07,13,20,7.00
2020,12,07,13,21,7.00
2020,12,07,13,22,7.00
2020,12,07,13,23,7.00
2020,12,07,13,24,7.00
2020,12,07,13,25,7.00
2020,12,07,13,26,7.00
2020,12,07,13,27,7.00
2020,12,07,13,28,7.00
2020,12,07,13,29,7.00
2020,12,07,13,30,7.00
2020,12,07,13,31,6.90
2020,12,07,13,32,6.90
2020,12,07,13,33,6.90
2020,12,07,13,34,6.90
2020,12,07,13,35,6.90
2020,12,07,13,36,6.90
2020,12,07,13,37,6.90
2020,12,07,13,38,6.90
2020,12,07,13,39,6.90
2020,12,07,13,40,6.90
2020,12,07,13,41,6.90
2020,12,07,13,42,6.90
2020,12,07,13,43,6.90
2020,12,07,13,44,6.90
2020,12,07,13,45,6.90
2020,12,07,13,46,6.90
2020,12,07,13,47,6.90
2020,12,07,13,48,6.90
2020,12,07,13,49,6.90
2020,12,07,13,50,6.90
2020,12,07,13,51,6.90
2020,12,07,13,52,6.90
2020,12,07,13,53,6.90
2020,12,07,13,54,6.90
2020,12,07,13,55,6.90
2020,12,07,13,56,6.90
2020,12,07,13,57,6.90
2020,12,07,13,58,6.90
2020,12,07,13,59,6.90
2020,12,07,14,00,6.90
2020,12,07,14,01,6.90
2020,12,07,14,02,6.90
2020,12,07,14,03,7.00
2020,12,07,14,04,6.90
2020,12,07,14,05,6.90
2020,12,07,14,06,6.90
2020,12,07,14,07,6.90
2020,12,07,14,08,6.90
2020,12,07,14,09,6.90
2020,12,07,14,10,6.90
2020,12,07,14,11,6.90
2020,12,07,14,12,6.90
2020,12,07,14,13,7.00
2020,12,07,14,14,7.00
2020,12,07,14,15,7.00
2020,12,07,14,16,7.00
2020,12,07,14,17,7.00
2020,12,07,14,18,7.00
2020,12,07,14,19,7.00
2020,12,07,14,20,7.00
2020,12,07,14,21,7.00
2020,12,07,14,22,7.00
2020,12,07,14,23,7.00
2020,12,07,14,24,7.00
2020,12,07,14,25,7.00
2020,12,07,14,26,7.00
2020,12,07,14,27,7.00
2020,12,07,14,28,7.00
2020,12,07,14,29,7.00
2020,12,07,14,30,7.00
2020,12,07,14,31,7.00
2020,12,07,14,32,7.00
2020,12,07,14,33,7.00
2020,12,07,14,34,7.00
2020,12,07,14,35,7.00
2020,12,07,14,36,7.00
2020,12,07,14,37,7.00
2020,12,07,14,38,7.00
2020,12,07,14,39,7.00
2020,12,07,14,40,7.00
2020,12,07,14,41,7.00
2020,12,07,14,42,7.00
2020,12,07,14,43,7.00
2020,12,07,14,44,7.00
2020,12,07,14,45,7.00
2020,12,07,14,46,7.00
2020,12,07,14,47,7.00
2020,12,07,14,48,7.00
2020,12,07,14,49,7.00
2020,12,07,14,50,7.00
2020,12,07,14,51,7.00
2020,12,07,14,52,7.00
2020,12,07,14,53,7.00
2020,12,07,14,54,7.00
2020,12,07,14,55,7.00
2020,12,07,14,56,7.00
2020,12,07,14,57,7.00
2020,12,07,14,58,7.00
2020,12,07,14,59,7.00
2020,12,07,15,00,7.00
2020,12,07,15,01,7.00
2020,12,07,15,02,7.00
2020,12,07,15,03,7.00
2020,12,07,15,04,7.00
2020,12,07,15,05,7.00
2020,12,07,15,06,7.00
2020,12,07,15,07,7.00
2020,12,07,15,08,7.00
2020,12,07,15,09,7.00
2020,12,07,15,10,7.00
2020,12,07,15,11,7.00
2020,12,07,15,12,7.00
2020,12,07,15,13,7.00
2020,12,07,15,14,7.00
2020,12,07,15,15,7.00
2020,12,07,15,16,7.00
2020,12,07,15,17,7.00
2020,12,07,15,18,7.00
2020,12,07,15,19,7.00
2020,12,07,15,20,7.00
2020,12,07,15,21,6.90
2020,12,07,15,22,6.90
2020,12,07,15,23,6.90
2020,12,07,15,24,6.90
2020,12,07,15,25,6.90
2020,12,07,15,26,6.90
2020,12,07,15,27,6.90
2020,12,07,15,28,6.90
2020,12,07,15,29,6.90
2020,12,07,15,30,6.90
2020,12,07,15,31,6.90
2020,12,07,15,32,6.90
2020,12,07,15,33,6.90
2020,12,07,15,34,6.90
2020,12,07,15,35,6.90
2020,12,07,15,36,6.90
2020,12,07,15,37,6.90
2020,12,07,15,38,6.90
2020,12,07,15,39,6.90
2020,12,07,15,40,6.90
2020,12,07,15,41,6.90
2020,12,07,15,42,6.90
2020,12,07,15,43,6.90
2020,12,07,15,44,6.90
2020,12,07,15,45,6.90
2020,12,07,15,46,6.90
2020,12,07,15,47,6.90
2020,12,07,15,48,6.90
2020,12,07,15,49,6.90
2020,12,07,15,50,6.90
2020,12,07,15,51,6.90
2020,12,07,15,52,6.80
2020,12,07,15,53,6.80
2020,12,07,15,54,6.80
2020,12,07,15,55,6.80
2020,12,07,15,56,6.80
2020,12,07,15,57,6.80
2020,12,07,15,58,6.80
2020,12,07,15,59,6.80
2020,12,07,16,00,6.80
2020,12,07,16,01,6.80
2020,12,07,16,02,6.80
2020,12,07,16,03,6.80
2020,12,07,16,04,6.80
2020,12,07,16,05,6.80
2020,12,07,16,06,6.80
2020,12,07,16,07,6.80
2020,12,07,16,08,6.80
2020,12,07,16,09,6.80
2020,12,07,16,10,6.70
2020,12,07,16,11,6.70
2020,12,07,16,12,6.70
2020,12,07,16,13,6.70
2020,12,07,16,14,6.70
2020,12,07,16,15,6.70
2020,12,07,16,16,6.70
2020,12,07,16,17,6.70
2020,12,07,16,18,6.70
2020,12,07,16,19,6.70
2020,12,07,16,20,6.70
2020,12,07,16,21,6.70
2020,12,07,16,22,6.70
2020,12,07,16,23,6.70
2020,12,07,16,24,6.70
2020,12,07,16,25,6.70
2020,12,07,16,26,6.70
2020,12,07,16,27,6.70
2020,12,07,16,28,6.70
2020,12,07,16,29,6.70
2020,12,07,16,30,6.70
2020,12,07,16,31,6.70
2020,12,07,16,32,6.70
2020,12,07,16,33,6.70
2020,12,07,16,34,6.70
2020,12,07,16,35,6.70
2020,12,07,16,36,6.70
2020,12,07,16,37,6.70
2020,12,07,16,38,6.70
2020,12,07,16,39,6.70
2020,12,07,16,40,6.60
2020,12,07,16,41,6.60
2020,12,07,16,42,6.60
2020,12,07,16,43,6.60
2020,12,07,16,44,6.60
2020,12,07,16,45,6.60
2020,12,07,16,46,6.60
2020,12,07,16,47,6.60
2020,12,07,16,48,6.60
2020,12,07,16,49,6.60
2020,12,07,16,50,6.60
2020,12,07,16,51,6.60
2020,12,07,16,52,6.60
2020,12,07,16,53,6.60
2020,12,07,16,54,6.60
2020,12,07,16,55,6.60
2020,12,07,16,56,6.60
2020,12,07,16,57,6.60
2020,12,07,16,58,6.60
2020,12,07,16,59,6.60
2020,12,07,17,00,6.60
2020,12,07,17,01,6.60
2020,12,07,17,02,6.60
2020,12,07,17,03,6.60
2020,12,07,17,04,6.60
2020,12,07,17,05,6.60
2020,12,07,17,06,6.60
2020,12,07,17,07,6.60
2020,12,07,17,08,6.60
2020,12,07,17,09,6.60
2020,12,07,17,10,6.60
2020,12,07,17,11,6.60
2020,12,07,17,12,6.60
2020,12,07,17,13,6.60
2020,12,07,17,14,6.60
2020,12,07,17,15,6.60
2020,12,07,17,16,6.60
2020,12,07,17,17,6.60
2020,12,07,17,18,6.60
2020,12,07,17,19,6.60
2020,12,07,17,20,6.60
2020,12,07,17,21,6.60
2020,12,07,17,22,6.60
2020,12,07,17,23,6.60
2020,12,07,17,24,6.60
2020,12,07,17,25,6.60
2020,12,07,17,26,6.60
2020,12,07,17,27,6.60
2020,12,07,17,28,6.60
2020,12,07,17,29,6.60
2020,12,07,17,30,6.60
2020,12,07,17,31,6.60
2020,12,07,17,32,6.60
2020,12,07,17,33,6.60
2020,12,07,17,34,6.60
2020,12,07,17,35,6.60
2020,12,07,17,36,6.60
2020,12,07,17,37,6.60
2020,12,07,17,38,6.60
2020,12,07,17,39,6.60
2020,12,07,17,40,6.60
2020,12,07,17,41,6.60
2020,12,07,17,42,6.60
2020,12,07,17,43,6.60
2020,12,07,17,44,6.60
2020,12,07,17,45,6.60
2020,12,07,17,46,6.60
2020,12,07,17,47,6.60
2020,12,07,17,48,6.60
2020,12,07,17,49,6.60
2020,12,07,17,50,6.60
2020,12,07,17,51,6.60
2020,12,07,17,52,6.60
2020,12,07,17,53,6.60
2020,12,07,17,54,6.60
2020,12,07,17,55,6.60
2020,12,07,17,56,6.60
2020,12,07,17,57,6.60
2020,12,07,17,58,6.60
2020,12,07,17,59,6.60
2020,12,07,18,00,6.60
2020,12,07,18,01,6.60
2020,12,07,18,02,6.60
2020,12,07,18,03,6.60
2020,12,07,18,04,6.60
2020,12,07,18,05,6.60
2020,12,07,18,06,6.60
2020,12,07,18,07,6.60
2020,12,07,18,08,6.60
2020,12,07,18,09,6.60
2020,12,07,18,10,6.60
2020,12,07,18,11,6.60
2020,12,07,18,12,6.60
2020,12,07,18,13,6.60
2020,12,07,18,14,6.60
2020,12,07,18,15,6.60
2020,12,07,18,16,6.60
2020,12,07,18,17,6.60
2020,12,07,18,18,6.60
2020,12,07,18,19,6.60
2020,12,07,18,20,6.60
2020,12,07,18,21,6.60
2020,12,07,18,22,6.60
2020,12,07,18,23,6.60
2020,12,07,18,24,6.60
2020,12,07,18,25,6.60
2020,12,07,18,26,6.60
2020,12,07,18,27,6.60
2020,12,07,18,28,6.60
2020,12,07,18,29,6.60
2020,12,07,18,30,6.60
2020,12,07,18,31,6.60
2020,12,07,18,32,6.60
2020,12,07,18,33,6.60
2020,12,07,18,34,6.60
2020,12,07,18,35,6.60
2020,12,07,18,36,6.60
2020,12,07,18,37,6.60
2020,12,07,18,38,6.60
2020,12,07,18,39,6.60
2020,12,07,18,40,6.60
2020,12,07,18,41,6.60
2020,12,07,18,42,6.60
2020,12,07,18,43,6.60
2020,12,07,18,44,6.60
2020,12,07,18,45,6.60
2020,12,07,18,46,6.60
2020,12,07,18,47,6.60
2020,12,07,18,48,6.60
2020,12,07,18,49,6.60
2020,12,07,18,50,6.60
2020,12,07,18,51,6.60
2020,12,07,18,52,6.60
2020,12,07,18,53,6.60
2020,12,07,18,54,6.60
2020,12,07,18,55,6.60
2020,12,07,18,56,6.60
2020,12,07,18,57,6.60
2020,12,07,18,58,6.60
2020,12,07,18,59,6.60
2020,12,07,19,00,6.60
2020,12,07,19,01,6.60
2020,12,07,19,02,6.60
2020,12,07,19,03,6.60
2020,12,07,19,04,6.60
2020,12,07,19,05,6.60
2020,12,07,19,06,6.60
2020,12,07,19,07,6.60
2020,12,07,19,08,6.60
2020,12,07,19,09,6.60
2020,12,07,19,10,6.60
2020,12,07,19,11,6.60
2020,12,07,19,12,6.60
2020,12,07,19,13,6.60
2020,12,07,19,14,6.60
2020,12,07,19,15,6.60
2020,12,07,19,16,6.60
2020,12,07,19,17,6.60
2020,12,07,19,18,6.60
2020,12,07,19,19,6.60
2020,12,07,19,20,6.60
2020,12,07,19,21,6.60
2020,12,07,19,22,6.60
2020,12,07,19,23,6.60
2020,12,07,19,24,6.60
2020,12,07,19,25,6.60
2020,12,07,19,26,6.60
2020,12,07,19,27,6.60
2020,12,07,19,28,6.60
2020,12,07,19,29,6.60
2020,12,07,19,30,6.60
2020,12,07,19,31,6.60
2020,12,07,19,32,6.60
2020,12,07,19,33,6.60
2020,12,07,19,34,6.60
2020,12,07,19,35,6.60
2020,12,07,19,36,6.60
2020,12,07,19,37,6.60
2020,12,07,19,38,6.60
2020,12,07,19,39,6.60
2020,12,07,19,40,6.60
2020,12,07,19,41,6.60
2020,12,07,19,42,6.60
2020,12,07,19,43,6.60
2020,12,07,19,44,6.60
2020,12,07,19,45,6.60
2020,12,07,19,46,6.60
2020,12,07,19,47,6.60
2020,12,07,19,48,6.60
2020,12,07,19,49,6.60
2020,12,07,19,50,6.60
2020,12,07,19,51,6.60
2020,12,07,19,52,6.60
2020,12,07,19,53,6.60
2020,12,07,19,54,6.60
2020,12,07,19,55,6.60
2020,12,07,19,56,6.60
2020,12,07,19,57,6.60
2020,12,07,19,58,6.60
2020,12,07,19,59,6.60
2020,12,07,20,00,6.60
2020,12,07,20,01,6.60
2020,12,07,20,02,6.60
2020,12,07,20,03,6.60
2020,12,07,20,04,6.70
2020,12,07,20,05,6.70
2020,12,07,20,06,6.70
2020,12,07,20,07,6.70
2020,12,07,20,08,6.70
2020,12,07,20,09,6.80
2020,12,07,20,10,6.80
2020,12,07,20,11,6.80
2020,12,07,20,12,6.80
2020,12,07,20,13,6.80
2020,12,07,20,14,6.80
2020,12,07,20,15,6.80
2020,12,07,20,16,6.90
2020,12,07,20,17,6.90
2020,12,07,20,18,6.90
2020,12,07,20,19,6.90
2020,12,07,20,20,6.90
2020,12,07,20,21,7.00
2020,12,07,20,22,7.10
2020,12,07,20,23,7.10
2020,12,07,20,24,7.10
2020,12,07,20,25,7.10
2020,12,07,20,26,7.20
2020,12,07,20,27,7.20
2020,12,07,20,28,7.20
2020,12,07,20,29,7.30
2020,12,07,20,30,7.50
2020,12,07,20,31,7.60
2020,12,07,20,32,7.60
2020,12,07,20,33,7.70
2020,12,07,20,34,7.80
2020,12,07,20,35,7.80
2020,12,07,20,36,7.90
2020,12,07,20,37,7.80
2020,12,07,20,38,7.80
2020,12,07,20,39,7.90
2020,12,07,20,40,8.00
2020,12,07,20,41,8.10
2020,12,07,20,42,8.20
2020,12,07,20,43,8.20
2020,12,07,20,44,8.20
2020,12,07,20,45,8.20
2020,12,07,20,46,8.20
2020,12,07,20,47,8.20
2020,12,07,20,48,8.20
2020,12,07,20,49,8.20
2020,12,07,20,50,8.20
2020,12,07,20,51,8.10
2020,12,07,20,52,8.00
2020,12,07,20,53,8.00
2020,12,07,20,54,7.90
2020,12,07,20,55,7.90
2020,12,07,20,56,7.90
2020,12,07,20,57,7.80
2020,12,07,20,58,7.80
2020,12,07,20,59,7.80
2020,12,07,21,00,7.70
2020,12,07,21,01,7.70
2020,12,07,21,02,7.70
2020,12,07,21,03,7.70
2020,12,07,21,04,7.70
2020,12,07,21,05,7.70
2020,12,07,21,06,7.70
2020,12,07,21,07,7.70
2020,12,07,21,08,7.70
2020,12,07,21,09,7.70
2020,12,07,21,10,7.70
2020,12,07,21,11,7.70
2020,12,07,21,12,7.70
2020,12,07,21,13,7.70
2020,12,07,21,14,7.70
2020,12,07,21,15,7.70
2020,12,07,21,16,7.70
2020,12,07,21,17,7.70
2020,12,07,21,18,7.70
2020,12,07,21,19,7.70
2020,12,07,21,20,7.70
2020,12,07,21,21,7.70
2020,12,07,21,22,7.70
2020,12,07,21,23,7.70
2020,12,07,21,24,7.70
2020,12,07,21,25,7.70
2020,12,07,21,26,7.70
2020,12,07,21,27,7.70
2020,12,07,21,28,7.80
2020,12,07,21,29,7.80
2020,12,07,21,30,7.90
2020,12,07,21,31,7.90
2020,12,07,21,32,8.00
2020,12,07,21,33,8.00
2020,12,07,21,34,8.00
2020,12,07,21,35,8.00
2020,12,07,21,36,8.00
2020,12,07,21,37,8.10
2020,12,07,21,38,8.10
2020,12,07,21,39,8.10
2020,12,07,21,40,8.10
2020,12,07,21,41,8.10
2020,12,07,21,42,8.10
2020,12,07,21,43,8.20
2020,12,07,21,44,8.30
2020,12,07,21,45,8.40
2020,12,07,21,46,8.50
2020,12,07,21,47,8.50
2020,12,07,21,48,8.60
2020,12,07,21,49,8.70
2020,12,07,21,50,8.80
2020,12,07,21,51,8.90
2020,12,07,21,52,8.90
2020,12,07,21,53,9.00
2020,12,07,21,54,9.00
2020,12,07,21,55,9.00
2020,12,07,21,56,9.00
2020,12,07,21,57,9.00
2020,12,07,21,58,8.90
2020,12,07,21,59,8.90
2020,12,07,22,00,9.00
2020,12,07,22,01,8.90
2020,12,07,22,02,8.90
2020,12,07,22,03,8.90
2020,12,07,22,04,8.90
2020,12,07,22,05,8.90
2020,12,07,22,06,8.90
2020,12,07,22,07,8.90
2020,12,07,22,08,8.90
2020,12,07,22,09,8.90
2020,12,07,22,10,9.00
2020,12,07,22,11,9.00
2020,12,07,22,12,9.10
2020,12,07,22,13,9.20
2020,12,07,22,14,9.40
2020,12,07,22,15,9.50
2020,12,07,22,16,9.60
2020,12,07,22,17,9.60
2020,12,07,22,18,9.50
2020,12,07,22,19,9.50
2020,12,07,22,20,9.60
2020,12,07,22,21,9.60
2020,12,07,22,22,9.60
2020,12,07,22,23,9.50
2020,12,07,22,24,9.40
2020,12,07,22,25,9.30
2020,12,07,22,26,9.20
2020,12,07,22,27,9.10
2020,12,07,22,28,9.00
2020,12,07,22,29,9.00
2020,12,07,22,30,9.00
2020,12,07,22,31,9.00
2020,12,07,22,32,9.00
2020,12,07,22,33,9.10
2020,12,07,22,34,9.10
2020,12,07,22,35,9.10
2020,12,07,22,36,9.00
2020,12,07,22,37,9.00
2020,12,07,22,38,9.00
2020,12,07,22,39,9.00
2020,12,07,22,40,8.90
2020,12,07,22,41,8.80
2020,12,07,22,42,8.80
2020,12,07,22,43,8.80
2020,12,07,22,44,8.80
2020,12,07,22,45,8.80
2020,12,07,22,46,8.80
2020,12,07,22,47,8.80
2020,12,07,22,48,8.80
2020,12,07,22,49,8.90
2020,12,07,22,50,8.90
2020,12,07,22,51,8.90
2020,12,07,22,52,8.90
2020,12,07,22,53,8.90
2020,12,07,22,54,8.90
2020,12,07,22,55,8.90
2020,12,07,22,56,8.90
2020,12,07,22,57,8.90
2020,12,07,22,58,8.90
2020,12,07,22,59,8.80
2020,12,07,23,00,8.70
2020,12,07,23,01,8.70
2020,12,07,23,02,8.60
2020,12,07,23,03,8.60
2020,12,07,23,04,8.60
2020,12,07,23,05,8.60
2020,12,07,23,06,8.60
2020,12,07,23,07,8.60
2020,12,07,23,08,8.90
2020,12,07,23,09,9.10
2020,12,07,23,10,9.20
2020,12,07,23,11,9.30
2020,12,07,23,12,9.50
2020,12,07,23,13,9.50
2020,12,07,23,14,9.50
2020,12,07,23,15,9.40
2020,12,07,23,16,9.50
2020,12,07,23,17,9.50
2020,12,07,23,18,9.60
2020,12,07,23,19,9.60
2020,12,07,23,20,9.60
2020,12,07,23,21,9.60
2020,12,07,23,22,9.60
2020,12,07,23,23,9.60
2020,12,07,23,24,9.60
2020,12,07,23,25,9.70
2020,12,07,23,26,9.70
2020,12,07,23,27,9.70